FW1585 Weather Reports


Display with metric or nautical units.
time (UTC)temp
F
wind
direction
speed
MPH
gust
MPH
rain 1hr
in
rain 24hr
in
rain mn
in
humidity
%
barometer
mb
20260507084529 29 329 2.0 3.0 0.00 0.00 0.00 79 1008.2
20260507083031 30 332 2.0 4.0 0.00 0.00 0.00 73 1008.2
20260507081521 31 327 1.0 3.0 0.00 0.00 0.00 73 1008.3
20260507080022 32 53 0.0 0.0 0.00 0.00 0.00 72 1008.3
20260507074516 33 53 0.0 1.0 0.00 0.00 0.00 70 1008.2
20260507073013 34 53 1.0 3.0 0.00 0.00 0.00 69 1008.4
20260507071512 34 53 0.0 4.0 0.00 0.00 0.00 68 1008.5
20260507070012 36 71 4.0 5.0 0.00 0.00 0.00 65 1008.6
20260507064508 37 113 0.0 10.0 0.00 0.00 0.00 64 1008.4
20260507063006 36 26 3.0 5.0 0.00 0.00 0.00 64 1008.6
20260507061504 37 154 5.0 10.0 0.00 0.00 0.00 64 1008.4
20260507060004 37 151 9.0 14.0 0.00 0.00 0.00 63 1008.4
20260507054600 37 173 8.0 12.0 0.00 0.00 0.00 63 1008.5
20260507053111 38 150 8.0 11.0 0.00 0.00 0.00 61 1008.5
20260507051555 38 159 8.0 14.0 0.00 0.00 0.00 62 1008.7
20260507050053 39 139 9.0 13.0 0.00 0.00 0.00 61 1008.6
20260507044552 38 135 9.0 12.0 0.00 0.00 0.00 63 1008.8
20260507043050 37 142 7.0 10.0 0.00 0.00 0.00 64 1009.1
20260507041551 38 117 7.0 11.0 0.00 0.00 0.00 62 1009.3
20260507040053 38 109 5.0 7.0 0.00 0.00 0.00 61 1009.6
20260507034549 39 122 5.0 8.0 0.00 0.00 0.00 59 1009.8
20260507033050 40 105 6.0 9.0 0.00 0.00 0.00 57 1010.0
20260507031545 40 90 7.0 9.0 0.00 0.00 0.00 56 1009.9
20260507030045 39 90 5.0 7.0 0.00 0.00 0.00 58 1009.8
20260507024548 39 83 4.0 6.0 0.00 0.00 0.00 59 1010.0
20260507023049 39 86 3.0 5.0 0.00 0.00 0.00 56 1010.0
20260507021546 40 81 3.0 6.0 0.00 0.00 0.00 55 1009.8
20260507020104 41 78 4.0 5.0 0.00 0.00 0.00 54 1009.9
20260507014546 43 69 4.0 8.0 0.00 0.00 0.00 51 1009.9
20260507013051 44 69 3.0 5.0 0.00 0.00 0.00 50 1009.8
20260507011540 46 58 4.0 5.0 0.00 0.00 0.00 47 1009.8
20260507010039 46 54 4.0 6.0 0.00 0.00 0.00 46 1009.8
20260507004550 47 43 2.0 3.0 0.00 0.00 0.00 45 1009.9
20260507003043 48 5 4.0 9.0 0.00 0.00 0.00 41 1010.0
20260507001543 49 11 6.0 9.0 0.00 0.00 0.00 39 1010.0
20260507000036 50 23 8.0 13.0 0.00 0.00 0.00 37 1010.0
20260506234537 50 340 8.0 13.0 0.00 0.00 0.00 38 1010.2
20260506233033 51 11 8.0 12.0 0.00 0.00 0.00 38 1010.3
20260506231531 51 351 10.0 17.0 0.00 0.00 0.00 37 1010.4
20260506230029 50 285 5.0 13.0 0.00 0.00 0.00 38 1010.6
20260506224532 51 304 7.0 17.0 0.00 0.00 0.00 38 1010.6
20260506223036 50 5 10.0 16.0 0.00 0.00 0.00 38 1010.6
20260506221523 50 319 9.0 16.0 0.00 0.00 0.00 37 1011.0
20260506220024 50 313 12.0 18.0 0.00 0.00 0.00 40 1011.2
20260506214535 49 323 7.0 17.0 0.00 0.00 0.00 41 1011.3
20260506213021 49 323 9.0 19.0 0.00 0.00 0.00 39 1011.5
20260506211516 49 334 6.0 12.0 0.00 0.00 0.00 40 1011.7
20260506210116 49 314 13.0 17.0 0.00 0.00 0.00 40 1012.0
20260506204513 48 296 9.0 18.0 0.00 0.00 0.00 42 1012.1
20260506203012 49 309 13.0 18.0 0.00 0.00 0.00 39 1012.2
20260506201511 47 312 10.0 18.0 0.00 0.00 0.00 41 1012.5
20260506200007 47 304 10.0 18.0 0.00 0.00 0.00 42 1012.7
20260506194507 47 347 14.0 20.0 0.00 0.00 0.00 42 1012.8
20260506193005 49 281 12.0 21.0 0.00 0.00 0.00 42 1013.0
20260506191502 48 306 12.0 20.0 0.00 0.00 0.00 41 1013.0
20260506190006 46 261 11.0 22.0 0.00 0.00 0.00 43 1013.0
20260506184611 47 299 11.0 21.0 0.00 0.00 0.00 42 1013.2
20260506183105 46 276 11.0 21.0 0.00 0.00 0.00 45 1013.3
20260506181622 46 286 14.0 19.0 0.00 0.00 0.00 45 1013.5
20260506180058 45 304 11.0 18.0 0.00 0.00 0.00 45 1013.6
20260506174555 45 317 13.0 19.0 0.00 0.00 0.00 46 1013.9
20260506173101 44 321 12.0 18.0 0.00 0.00 0.00 46 1014.1
20260506171552 44 288 10.0 19.0 0.00 0.00 0.00 48 1014.1
20260506170055 43 292 14.0 19.0 0.00 0.00 0.00 47 1014.4
20260506164550 44 277 12.0 18.0 0.00 0.00 0.00 50 1014.4
20260506163050 43 277 11.0 18.0 0.00 0.00 0.00 49 1014.4
20260506161549 43 302 13.0 20.0 0.00 0.00 0.00 50 1014.5
20260506160052 42 295 11.0 17.0 0.00 0.00 0.00 51 1014.4
20260506154543 41 321 10.0 16.0 0.00 0.00 0.00 53 1014.6
20260506153105 41 360 10.0 18.0 0.00 0.00 0.00 53 1014.6
20260506151544 41 321 9.0 14.0 0.00 0.00 0.00 54 1014.5
20260506150046 40 292 10.0 15.0 0.00 0.00 0.00 55 1014.6
20260506144535 40 290 7.0 16.0 0.00 0.00 0.00 60 1014.6
20260506143034 40 291 7.0 12.0 0.00 0.00 0.00 61 1014.8
20260506141531 40 292 9.0 13.0 0.00 0.00 0.00 60 1014.8
20260506140029 39 282 7.0 11.0 0.00 0.00 0.00 62 1014.9
20260506134525 39 254 7.0 11.0 0.00 0.00 0.00 64 1014.8
20260506133022 38 256 7.0 10.0 0.00 0.00 0.00 68 1014.8
20260506131524 37 265 4.0 7.0 0.00 0.00 0.00 78 1014.6
20260506130014 35 284 4.0 6.0 0.00 0.00 0.00 83 1014.6
20260506124509 34 283 2.0 4.0 0.00 0.00 0.00 84 1014.5
20260506123005 33 294 3.0 4.0 0.00 0.00 0.00 84 1014.3
20260506121500 33 259 0.0 2.0 0.00 0.00 0.00 85 1014.2
20260506120058 32 259 1.0 2.0 0.00 0.00 0.00 85 1014.1
20260506114559 32 259 2.0 3.0 0.00 0.00 0.00 85 1013.8
20260506113052 32 259 2.0 3.0 0.00 0.00 0.00 85 1013.8
20260506111551 32 259 1.0 3.0 0.00 0.00 0.00 85 1013.7
20260506110049 32 259 2.0 3.0 0.00 0.00 0.00 85 1013.7
20260506104555 32 259 1.0 3.0 0.00 0.00 0.00 84 1013.6
20260506103054 32 259 2.0 4.0 0.00 0.00 0.00 84 1013.6
20260506101547 32 259 2.0 4.0 0.00 0.00 0.00 83 1013.6
20260506100046 32 254 2.0 4.0 0.00 0.00 0.00 83 1013.7
20260506094545 32 283 1.0 3.0 0.00 0.00 0.00 83 1013.7
20260506093043 32 283 1.0 2.0 0.00 0.00 0.00 82 1013.5
20260506091551 31 283 1.0 2.0 0.00 0.00 0.00 82 1013.5
20260506090042 31 283 1.0 2.0 0.00 0.00 0.00 82 1013.5